Wind_Speed
58 58 58 57 57 55 53 51 49 46 43 40 37 33 30 28 27 26 24 23 22 20 19 17 15 14 13 13 14 16 17 19 21 23 26 28 30 32 33 35 37 38 38 38 37 36 34 32 31 29 27 25 23 21 19 17 15 13 11 9 7 5 3 1 2 3 5 7 9 11 13 14 16 17 18 19 20 22 23 24 25 27 28 30 31 32 33 34
53 52 51 49 47 45 43 40 37 34 30 27 25 23 22 21 21 20 18 17 16 15 14 13 13 14 16 18 19 22 24 27 29 31 33 35 38 40 41 42 41 41 40 38 37 35 33 31 29 27 25 24 22 19 17 15 13 11 9 7 5 3 2 2 4 5 7 9 11 12 14 16 17 19 20 21 22 23 25 26 27 28 29 31 32 33 34 34
44 42 40 38 36 33 30 27 25 22 20 18 17 17 17 16 15 14 14 13 13 13 14 16 17 19 21 24 26 29 32 34 36 38 40 43 44 45 44 43 42 41 39 37 35 34 32 30 28 26 24 22 20 18 16 14 11 9 7 6 3 1 2 3 5 6 8 11 12 14 15 17 19 20 21 22 24 25 26 27 28 29 30 31 32 34 34 35
34 32 30 27 25 22 20 18 16 15 14 14 14 13 13 12 13 13 13 14 16 17 19 21 23 26 29 31 34 36 39 42 44 46 47 47 47 46 44 42 41 39 37 35 34 32 30 28 26 24 22 20 18 16 14 12 10 8 6 4 2 1 3 5 7 8 11 13 14 16 17 19 20 21 22 24 25 26 27 28 29 30 31 32 33 34 35 36
24 22 20 17 15 14 12 11 11 11 11 11 12 12 13 14 15 16 18 20 22 24 26 29 31 33 36 38 41 44 47 49 50 49 49 48 46 44 42 41 39 37 35 34 32 30 28 26 24 21 19 17 15 13 12 9 7 6 4 2 1 3 5 7 9 11 13 15 16 18 19 21 22 23 24 25 26 27 28 29 30 31 32 34 35 36 36 37
15 13 11 10 9 9 9 10 11 12 13 14 16 17 18 20 21 22 24 27 29 32 34 36 39 41 44 46 49 52 53 53 51 50 48 46 44 43 41 39 37 35 33 31 29 28 26 24 22 19 17 15 13 11 9 7 5 3 1 1 3 6 7 9 11 14 16 17 18 20 21 22 24 25 26 27 28 29 30 31 32 33 34 35 36 37 38 38
8 7 7 8 9 11 12 14 15 17 19 21 22 24 25 26 27 28 31 35 38 40 43 45 48 50 52 54 54 54 54 52 50 49 47 45 43 41 39 37 35 33 31 29 27 25 23 21 19 17 15 13 11 9 6 4 2 1 2 4 6 8 9 11 13 15 17 19 20 21 22 24 25 26 27 28 29 30 31 32 33 34 35 37 38 38 39 39
7 9 11 13 15 17 18 20 22 23 25 27 29 31 32 33 34 36 40 44 47 51 53 56 57 57 57 56 55 54 52 51 49 47 45 42 41 38 36 34 32 30 28 26 24 22 20 18 16 14 12 10 9 6 4 2 2 3 5 6 8 9 10 12 14 16 18 20 21 22 24 25 26 27 28 29 30 31 32 34 35 36 37 38 39 40 40 41
13 15 17 19 21 23 25 27 29 31 33 36 38 40 41 42 44 46 51 55 58 60 61 61 60 58 57 56 54 52 50 49 47 45 42 40 38 36 34 32 29 27 25 23 21 19 17 15 13 11 9 7 6 4 2 3 4 5 7 8 10 11 12 14 16 18 20 21 23 24 25 27 28 29 30 31 32 33 34 35 36 37 39 40 41 41 42 42
19 22 24 26 28 30 33 36 38 41 43 46 48 50 51 52 54 56 59 62 63 63 62 61 59 57 56 54 53 50 47 46 44 41 39 37 35 33 31 29 27 25 23 21 18 16 14 12 10 8 6 5 4 3 3 5 6 7 9 11 12 13 15 17 19 20 22 23 25 26 27 29 30 31 32 33 34 35 36 37 38 39 41 42 43 44 44 44
26 28 31 33 36 39 42 45 47 50 52 55 57 58 59 60 60 62 63 63 63 62 60 59 57 55 53 52 50 47 45 42 40 38 36 34 32 30 28 26 24 22 20 18 16 13 11 10 8 6 4 4 3 3 5 7 9 10 12 13 14 16 18 19 21 23 24 26 27 28 30 31 33 34 35 36 37 38 39 40 41 42 43 44 44 45 46 46
34 36 39 42 45 48 50 52 54 57 59 61 62 62 62 62 62 63 63 62 62 60 58 56 54 52 50 49 47 44 42 40 38 36 34 32 30 28 26 23 21 19 17 15 13 11 9 7 6 4 3 2 4 5 6 8 11 13 15 16 17 18 20 21 23 24 26 27 29 31 32 33 35 36 38 39 40 41 42 43 44 45 45 45 46 47 47 48
42 45 47 50 52 54 56 57 59 61 63 64 64 63 63 62 62 62 61 60 59 58 56 54 52 50 48 46 44 42 40 38 35 33 31 29 28 26 24 21 19 17 15 13 11 9 7 6 4 2 0 2 5 6 7 9 12 14 15 17 19 20 21 23 24 26 28 29 31 32 34 35 37 39 40 42 43 44 44 46 46 47 47 47 48 49 49 50
49 51 53 54 56 58 59 61 62 63 64 64 64 63 62 62 61 60 59 58 56 55 53 51 49 47 45 43 41 39 37 35 33 30 28 26 24 23 21 19 17 15 13 11 9 7 5 4 2 1 2 5 7 7 8 10 13 15 17 19 20 22 24 25 26 28 30 31 33 35 36 37 39 41 42 44 45 46 47 48 49 49 49 50 50 51 51 52
54 55 56 57 58 59 60 61 62 63 63 63 62 62 61 60 59 58 57 55 54 52 50 48 45 44 43 40 38 36 34 32 30 28 25 23 21 19 18 16 14 12 10 8 6 4 3 1 2 4 6 8 10 9 10 12 14 17 19 21 23 24 26 27 29 30 32 34 35 37 38 40 41 43 45 46 47 48 49 50 51 51 51 52 52 53 53 54
56 57 58 58 58 59 60 60 61 61 61 61 60 60 59 58 57 56 54 53 51 49 47 45 43 41 39 37 35 33 31 29 26 24 22 20 18 16 14 12 10 9 7 6 4 3 2 2 4 6 9 11 13 13 13 15 17 20 22 24 26 27 29 30 32 33 35 36 37 39 40 41 43 45 47 48 49 50 51 52 53 53 54 54 55 55 56 56
57 57 57 58 58 58 58 58 58 58 58 58 58 57 56 55 54 53 51 49 48 46 43 41 41 38 35 33 32 30 27 25 23 21 19 16 14 12 11 9 7 5 5 4 3 2 3 4 7 9 11 13 15 15 16 18 20 23 25 27 28 30 32 33 35 36 37 38 39 40 42 43 44 47 48 50 51 52 54 54 55 55 56 56 57 57 58 59
57 57 57 57 57 57 57 56 55 55 54 53 53 53 53 52 51 49 47 46 44 42 39 37 36 35 31 30 29 26 24 22 20 17 15 13 11 9 7 6 4 4 4 4 4 4 5 7 9 11 13 15 16 17 19 21 23 25 27 29 31 33 34 36 37 38 40 41 41 42 44 46 46 48 50 51 53 54 55 56 56 57 58 58 59 59 60 60
56 56 55 55 55 55 54 53 53 52 50 49 48 48 48 48 47 46 44 42 41 39 36 33 31 29 27 25 24 22 20 18 16 13 11 9 7 6 4 3 3 3 4 5 6 6 8 10 11 13 15 17 18 20 22 23 25 27 29 31 33 35 37 38 39 40 42 43 45 44 44 47 49 50 51 53 54 56 56 57 58 59 60 60 61 61 62 63
54 54 54 54 53 53 52 51 50 48 47 46 45 43 42 42 42 41 40 39 37 35 33 30 27 24 23 21 19 17 15 14 12 9 7 6 4 3 2 3 4 5 7 9 10 11 12 13 14 16 18 19 21 22 24 26 28 30 31 33 35 37 38 40 41 42 43 44 47 48 47 47 51 53 53 54 56 57 58 59 60 61 61 62 63 64 64 65
51 51 51 52 51 50 49 48 47 46 44 43 41 39 37 36 36 35 34 35 33 31 29 26 23 21 19 18 16 13 11 9 8 6 4 3 2 2 3 5 7 9 11 13 15 15 16 17 18 19 21 22 23 25 27 29 31 32 34 35 37 38 40 41 42 43 44 45 48 51 51 49 51 55 56 56 57 58 59 60 62 63 63 64 65 66 66 67
49 49 49 48 48 47 46 45 45 44 42 41 38 36 34 33 32 29 28 30 30 27 25 22 19 17 15 14 11 9 7 4 3 2 1 2 4 5 6 8 11 13 15 17 18 18 19 20 21 22 23 25 26 28 30 32 33 35 36 38 39 40 41 43 44 45 46 46 47 51 56 54 52 56 58 58 59 60 61 63 63 65 66 66 66 67 68 69
47 47 46 45 44 44 43 42 41 41 40 39 37 34 31 30 29 26 23 23 24 23 20 18 16 14 12 9 7 4 3 1 2 3 4 5 7 8 10 12 14 16 18 20 20 21 22 23 24 25 26 27 29 31 32 34 36 37 39 40 41 42 43 44 46 47 48 48 48 49 56 61 56 56 60 61 61 63 64 66 66 67 68 68 69 69 70 71
44 44 43 42 41 40 39 39 38 37 36 36 35 32 29 28 26 24 21 20 19 18 15 14 12 10 7 5 2 1 2 4 6 6 7 9 10 12 14 16 18 20 21 23 23 24 25 26 27 28 29 30 32 33 35 37 38 40 41 42 43 44 45 46 47 49 50 51 51 49 52 62 63 58 60 64 64 65 67 68 69 70 70 71 71 71 72 72
41 40 40 39 38 37 36 35 34 33 32 32 31 29 27 26 24 21 19 17 15 13 12 10 8 5 3 1 2 4 6 7 8 9 11 12 14 16 18 19 21 23 24 25 26 27 28 29 30 31 32 33 35 36 38 39 40 42 43 44 45 46 47 48 49 50 52 54 55 54 51 57 64 61 60 63 65 66 69 70 72 72 73 74 74 74 74 75
37 37 36 36 35 34 33 32 31 30 29 28 27 26 24 23 21 19 17 14 12 10 8 6 4 1 1 3 5 6 8 9 11 13 14 16 18 19 21 23 24 26 27 28 29 30 31 32 33 34 36 37 38 39 40 41 43 44 45 46 47 48 49 50 51 52 54 56 58 59 56 56 63 64 62 65 67 68 70 72 74 75 75 76 77 77 77 77
34 33 33 32 32 31 30 29 27 26 25 24 23 22 21 20 19 17 14 11 9 7 5 3 1 2 3 5 6 7 9 12 14 16 18 20 21 23 24 26 27 28 29 30 32 33 34 35 36 37 38 40 41 42 43 44 45 46 47 48 49 50 51 52 53 54 56 59 60 62 62 60 64 66 64 66 68 69 72 74 76 77 77 77 78 79 79 79
31 30 30 29 28 28 27 26 24 23 22 21 20 18 17 16 15 13 11 9 6 4 2 1 3 5 6 7 9 10 12 14 16 18 21 22 24 26 27 28 29 30 32 33 34 35 36 37 39 40 41 42 43 44 46 46 47 49 49 50 52 52 54 54 55 56 57 60 62 64 66 65 66 68 66 66 69 69 71 74 76 78 78 78 79 80 80 80
28 27 27 26 25 24 23 23 21 19 18 17 16 15 13 12 11 9 7 5 4 3 3 4 6 8 9 11 12 13 15 17 19 21 23 25 26 28 29 30 31 32 34 35 36 37 38 40 41 42 43 45 46 47 48 49 49 51 52 53 54 55 56 57 58 59 59 62 64 67 69 70 70 71 69 69 69 70 71 74 76 79 79 80 80 80 80 81
25 24 23 23 22 21 20 19 18 16 14 13 12 11 9 8 6 5 5 4 5 7 7 8 10 11 13 14 16 17 19 20 22 24 26 27 29 30 31 33 34 35 36 37 39 40 41 42 43 45 46 47 48 49 51 52 52 53 54 55 56 57 58 59 61 61 62 63 66 69 72 74 75 74 72 72 71 71 72 74 77 80 81 82 82 81 80 81
22 21 21 20 19 18 16 15 15 13 12 11 9 8 7 6 6 6 7 7 9 11 11 12 14 15 16 18 19 21 22 24 26 27 29 30 32 33 34 36 37 38 39 40 41 43 44 45 46 48 49 50 51 52 54 55 55 56 58 58 59 59 60 61 63 64 64 65 67 70 73 77 80 79 75 75 75 73 74 75 77 81 83 84 85 83 82 82
19 18 18 17 16 15 14 13 12 11 11 10 9 9 8 8 8 9 10 11 12 14 15 16 17 19 20 21 23 24 26 28 29 31 32 34 35 36 37 39 40 40 42 43 44 46 48 49 49 50 52 53 54 56 57 58 59 60 61 62 62 62 62 63 64 65 65 66 68 70 73 77 83 83 78 77 77 76 76 76 77 81 83 85 86 85 84 83
17 16 16 15 15 14 13 12 12 11 11 11 10 10 10 10 11 12 13 14 15 17 18 19 21 22 24 25 26 28 30 31 33 34 36 37 38 40 40 41 42 43 44 46 47 49 51 53 53 54 55 57 57 59 60 61 62 63 64 66 66 67 66 65 66 66 66 67 68 71 73 77 84 86 81 79 78 77 78 78 77 80 84 86 86 85 84 84
17 16 15 15 14 14 13 13 12 12 12 12 13 13 13 14 14 15 16 17 19 20 21 23 24 26 27 28 30 31 33 35 36 38 39 40 41 42 43 44 45 47 47 48 49 50 53 56 57 57 59 60 60 62 63 64 65 66 68 69 70 71 72 71 71 70 69 67 68 71 73 76 84 88 85 82 79 78 79 79 78 80 84 86 86 85 84 84
17 16 16 15 15 14 14 14 14 15 15 15 16 16 16 17 18 19 20 21 22 23 25 26 28 29 30 32 33 35 36 38 39 41 42 43 45 45 46 47 48 50 50 51 52 52 55 58 60 61 62 63 64 65 66 67 68 69 70 72 73 75 76 76 76 75 74 71 68 71 72 74 83 89 89 84 80 79 81 80 78 80 83 85 85 85 85 85
16 16 16 16 16 16 16 16 17 17 17 18 18 19 20 20 21 22 24 25 26 27 29 30 32 33 34 36 37 39 40 41 42 44 45 46 47 48 49 50 51 53 53 54 55 55 56 60 63 64 65 66 67 68 70 71 71 72 73 75 76 77 78 79 79 78 78 75 71 71 71 73 80 88 91 87 82 81 82 81 80 81 84 85 86 87 89 88
16 16 17 17 17 17 17 18 18 19 19 20 21 22 23 24 25 26 27 29 30 32 33 34 36 37 38 39 41 42 43 44 45 47 48 49 50 52 53 54 55 56 57 58 58 59 58 61 65 68 68 69 71 72 73 75 76 76 77 78 79 80 81 82 82 81 81 78 73 71 71 73 78 86 90 89 86 85 85 83 83 85 87 88 88 90 92 93
17 17 17 18 18 18 19 19 20 20 21 22 23 25 25 27 28 29 31 32 34 35 36 38 39 40 41 42 44 45 46 47 48 49 51 52 54 55 56 57 58 59 60 61 62 63 62 62 66 70 71 72 74 75 77 78 79 80 81 82 83 83 84 84 84 84 83 81 77 73 71 73 78 83 86 88 89 89 88 87 88 90 92 92 93 94 96 97
19 19 19 19 19 20 20 21 22 22 24 25 26 27 29 30 32 33 34 36 37 38 39 41 42 43 44 45 46 48 49 50 51 52 54 55 56 58 59 60 61 62 63 64 65 66 66 65 66 70 73 74 76 78 79 80 82 82 83 84 85 86 86 86 86 85 86 85 81 78 74 72 78 83 83 84 88 90 90 90 91 94 96 97 97 98 98 99
20 20 20 20 21 21 22 23 24 25 26 28 29 30 32 33 35 36 37 38 39 40 42 43 44 45 46 47 49 50 52 53 54 56 57 58 59 61 62 63 64 65 66 67 68 69 69 69 69 71 74 76 78 80 81 82 83 84 85 86 87 88 88 88 86 86 87 87 85 84 77 72 78 84 83 85 89 90 92 93 94 97 99 100 101 100 100 100
20 21 21 22 23 23 24 25 26 27 29 30 31 32 34 35 37 38 39 40 42 43 44 45 46 48 49 50 51 53 55 56 58 59 60 61 62 63 65 66 67 69 69 70 72 72 72 72 72 73 75 77 79 81 83 84 85 86 87 88 89 90 90 90 88 87 88 88 88 88 81 76 81 85 84 88 91 92 95 97 98 100 101 102 102 102 102 102
22 22 23 24 25 25 26 28 29 30 31 32 34 35 36 38 39 40 41 43 44 45 46 47 49 50 51 53 54 55 57 58 60 62 63 64 65 66 68 69 70 71 72 73 74 75 76 76 75 75 76 79 80 82 83 84 85 87 89 91 91 92 92 92 91 90 90 89 90 90 85 83 87 88 88 92 93 94 97 100 100 101 102 103 103 103 103 103
24 24 25 26 26 27 28 30 31 32 33 35 36 37 39 40 41 42 43 45 46 47 48 50 51 52 54 55 56 58 59 61 62 64 65 67 69 70 71 72 73 75 76 76 77 78 79 79 79 77 77 79 81 83 84 85 85 88 91 93 94 94 93 93 93 93 93 93 93 93 91 90 91 92 93 94 94 95 98 100 101 102 103 104 104 105 105 104
25 26 27 27 28 29 30 32 33 34 35 37 38 39 41 42 43 44 45 47 48 49 50 52 53 55 56 57 59 60 62 63 65 67 68 70 71 73 74 75 76 78 78 79 80 80 81 82 82 81 79 79 81 83 84 84 85 87 90 93 94 93 93 93 94 95 95 95 95 96 96 94 94 95 96 95 95 97 99 101 103 104 105 106 105 105 105 105
26 27 28 29 30 31 32 34 35 36 37 38 40 41 43 44 45 46 48 49 51 52 53 55 56 57 59 60 62 63 65 66 67 69 71 72 74 76 77 78 79 80 81 82 82 83 83 85 86 86 85 85 85 85 84 83 83 84 88 92 95 95 95 95 96 96 96 96 96 98 98 97 97 98 98 97 99 100 101 103 104 105 106 107 106 106 105 104
27 28 29 31 32 33 34 35 37 38 39 40 42 43 45 46 48 49 50 51 53 54 55 57 59 60 61 63 64 66 68 69 70 72 73 75 76 78 79 81 82 83 84 85 85 85 85 87 88 88 89 91 91 89 89 88 87 88 92 97 99 100 100 100 100 99 99 98 98 100 101 100 100 100 99 99 100 100 101 102 103 103 105 105 105 105 104 104
29 30 32 33 34 35 36 38 39 40 42 43 44 46 47 49 50 51 53 54 56 57 58 60 61 62 64 65 67 68 70 72 73 74 76 78 79 80 82 83 84 85 86 87 88 88 87 87 88 88 88 91 93 93 93 93 93 95 98 101 103 104 104 103 103 102 102 102 101 102 103 102 102 101 100 100 100 100 100 101 101 101 102 102 102 102 102 102
31 32 34 35 36 37 38 40 41 42 44 45 47 48 49 51 52 54 55 56 58 59 60 62 63 65 66 67 69 70 72 73 75 77 78 80 81 82 84 85 86 87 88 89 89 89 88 88 88 87 88 92 95 95 95 95 95 97 101 104 106 106 105 103 103 102 102 103 103 102 102 101 100 99 99 98 98 98 99 99 99 99 99 99 99 99 99 100
33 34 36 37 38 39 40 42 43 45 46 47 49 50 52 53 55 56 57 59 60 61 63 64 65 67 68 69 71 72 73 74 76 77 79 80 82 83 85 86 87 88 89 90 90 91 91 91 91 90 89 92 94 95 95 95 94 96 100 104 106 105 103 100 99 99 99 99 99 99 98 96 97 97 96 95 94 94 96 97 96 95 95 96 97 97 97 97
35 37 38 39 40 41 43 44 46 47 49 50 51 53 54 55 56 58 59 60 62 63 65 66 67 69 70 71 73 74 75 76 77 78 80 81 82 84 85 87 88 90 91 92 93 95 95 94 94 93 91 92 94 94 93 93 93 94 98 101 102 100 97 94 93 94 94 94 94 94 93 92 92 93 92 91 90 90 92 94 93 92 91 92 93 94 94 95
38 39 40 41 43 44 45 47 48 49 51 52 53 55 56 57 58 60 61 62 64 65 66 68 69 70 71 73 74 75 77 78 79 80 81 83 84 86 87 89 91 93 94 96 97 98 98 98 97 95 93 92 93 92 90 89 89 91 94 96 95 92 90 88 87 89 90 90 90 89 88 88 87 87 86 84 83 84 87 90 90 88 88 89 91 91 91 92
40 42 43 44 45 46 47 49 50 51 53 54 55 57 58 59 61 62 63 64 65 66 67 69 70 71 72 73 74 75 77 78 80 82 84 86 88 90 92 94 95 97 98 100 101 102 102 102 101 99 96 94 92 90 88 86 85 87 89 89 86 85 84 82 82 84 86 87 86 85 84 83 83 83 81 79 77 79 82 85 86 85 84 85 87 88 89 89
Wind_Direction
274 273 273 272 271 271 270 270 269 269 268 268 267 265 262 259 255 251 249 248 247 245 242 238 229 218 205 189 175 162 152 147 142 138 135 132 128 126 125 125 125 124 123 121 119 117 116 116 117 118 120 122 123 124 126 128 129 131 132 135 138 137 141 183 253 279 290 292 292 293 296 298 298 298 300 301 303 305 306 306 308 309 310 309 309 309 310 310
272 271 270 269 269 268 268 267 267 265 264 261 257 253 248 244 242 240 239 237 233 227 219 206 193 180 169 159 151 144 139 136 133 130 128 127 125 124 124 123 121 119 118 117 116 117 117 118 120 122 123 124 126 127 128 129 130 131 132 132 133 136 164 248 272 287 293 293 292 295 298 299 299 300 302 304 305 306 307 307 308 310 311 311 312 312 312 311
270 268 267 266 266 265 263 261 259 255 250 245 238 234 231 230 228 224 219 212 202 191 180 171 162 154 147 142 138 135 132 129 127 126 125 124 123 122 120 118 117 116 116 117 118 119 120 122 123 124 125 126 126 127 127 128 129 130 129 128 130 158 241 275 287 294 296 295 296 297 300 301 301 302 304 305 307 307 307 308 309 310 311 313 313 313 313 313
267 265 264 262 260 256 253 248 243 236 228 221 217 214 210 205 199 191 183 173 165 158 153 147 141 137 134 132 130 129 127 125 124 123 122 121 119 117 116 116 116 117 118 119 120 121 122 123 124 124 125 125 125 126 126 127 128 128 126 126 135 252 280 289 296 300 299 297 299 300 301 302 303 304 305 305 306 307 307 308 309 311 312 313 314 315 315 316
263 261 257 252 246 239 231 222 213 205 198 192 186 179 172 166 162 158 152 147 143 138 135 132 130 129 127 126 126 125 124 122 121 120 118 117 116 116 116 117 118 119 120 121 122 122 122 123 122 123 123 124 124 124 125 126 127 124 122 123 282 291 295 299 303 304 301 300 301 302 303 304 305 305 306 306 307 307 308 309 311 313 314 314 315 316 317 318
255 248 239 227 213 201 189 180 173 166 161 155 150 146 143 140 139 138 136 133 130 127 126 125 124 123 123 123 123 122 120 118 118 117 116 116 117 118 119 120 120 121 121 122 122 122 122 122 122 123 123 123 122 121 120 122 121 114 106 318 306 302 305 307 309 307 303 303 302 303 304 304 305 305 306 307 308 309 310 311 313 314 315 316 316 317 317 318
227 208 188 173 163 156 150 147 144 141 139 136 134 131 128 127 127 127 127 124 123 122 122 121 120 121 121 121 120 119 118 117 118 117 118 119 120 120 120 121 121 121 121 121 121 121 121 121 122 122 121 119 116 112 112 108 90 40 327 313 308 305 309 310 309 306 304 303 303 304 304 304 304 304 305 307 309 310 312 313 314 315 316 316 317 317 317 318
156 145 140 137 135 133 132 131 129 128 126 124 123 120 119 119 119 121 122 121 120 120 119 119 119 119 119 118 117 117 118 118 118 118 119 120 120 120 120 120 120 120 121 121 121 120 120 119 118 115 113 111 106 99 88 59 7 332 316 309 305 304 306 306 304 303 302 302 303 304 303 303 304 304 306 307 309 311 312 313 314 315 315 316 316 317 317 318
125 124 124 124 123 123 122 120 119 118 118 117 116 114 114 115 118 120 121 120 119 118 118 118 118 118 117 117 117 117 118 118 118 119 119 120 120 120 121 121 122 121 121 121 120 119 117 115 112 110 108 105 97 83 41 354 332 321 312 305 305 305 305 303 302 301 302 303 303 304 304 305 305 306 307 308 309 311 312 313 314 315 315 315 316 317 318 319
115 116 116 116 116 116 116 115 115 115 115 113 112 112 114 117 120 120 120 119 118 117 117 117 117 117 117 118 118 118 118 118 118 119 120 120 121 121 121 122 122 121 120 118 116 114 112 109 107 103 97 85 71 42 352 331 324 317 309 306 308 308 306 304 304 304 304 305 305 306 306 307 307 308 309 309 310 311 312 314 314 314 314 315 316 317 319 320
110 111 113 113 114 114 115 115 115 114 112 111 112 114 117 119 119 119 118 118 117 117 117 117 117 118 118 118 118 119 119 119 119 120 121 121 121 121 121 120 119 118 116 114 112 111 108 106 103 93 74 45 14 348 334 327 323 315 309 310 311 309 308 306 306 305 306 306 306 307 308 309 310 310 311 311 312 312 313 314 314 314 315 315 316 318 319 320
110 112 112 113 114 114 114 114 113 113 113 114 115 117 118 118 118 117 117 117 116 117 117 117 118 118 119 119 119 120 121 121 122 122 122 122 122 121 120 119 118 117 117 116 115 114 115 116 110 101 70 7 322 321 327 322 317 313 311 311 310 308 307 306 305 305 305 306 306 307 308 309 310 311 311 312 313 313 314 314 314 314 315 316 317 318 319 320
111 112 112 113 113 113 113 113 113 114 115 116 116 117 117 117 117 117 116 117 117 118 118 119 120 121 121 120 121 122 122 122 123 122 123 123 123 123 123 122 122 123 123 122 123 127 131 127 121 123 87 293 293 309 318 312 310 309 308 307 306 306 305 304 304 304 305 306 307 308 308 309 310 311 311 312 312 313 313 313 314 314 315 316 317 318 319 321
110 111 111 112 112 113 114 114 115 116 116 116 117 117 117 117 117 117 117 118 119 119 120 121 122 123 122 121 122 122 123 123 123 123 123 123 124 124 124 124 124 125 126 126 129 134 134 129 145 247 279 279 283 296 301 301 305 305 303 302 302 303 303 303 303 304 305 306 307 308 309 309 310 311 311 311 312 312 312 313 313 314 316 317 317 319 320 321
110 110 111 112 113 114 115 116 116 117 117 118 118 118 119 119 119 119 120 121 121 122 122 122 124 123 121 122 123 123 123 123 123 123 123 123 124 125 124 124 125 127 128 130 135 138 141 162 266 284 290 286 287 291 293 297 302 302 300 300 300 301 302 302 303 303 304 305 307 308 309 310 310 310 310 310 311 311 311 312 313 315 316 317 318 319 320 321
111 112 113 114 115 115 116 116 117 118 119 119 120 120 120 121 121 122 122 122 122 123 123 123 124 122 121 122 123 123 123 123 123 123 123 125 126 127 126 127 131 136 140 144 155 171 205 274 294 296 294 292 292 293 296 300 301 301 300 300 300 301 302 302 303 303 304 305 307 308 309 310 310 310 310 310 310 311 312 313 314 315 316 317 318 319 320 321
113 114 115 115 116 116 116 117 118 118 119 120 121 122 122 123 123 123 123 123 123 123 123 124 124 121 122 125 124 123 124 125 125 124 125 127 130 131 133 136 145 153 165 180 196 224 265 287 293 291 292 293 294 296 300 303 303 302 301 301 301 301 301 301 302 303 304 306 307 308 309 309 310 310 309 310 310 311 312 313 314 315 316 317 318 319 320 321
115 116 116 116 117 117 117 118 118 119 120 121 122 123 124 124 124 123 123 123 123 123 123 125 123 121 126 128 126 126 128 128 127 126 129 133 135 136 138 148 164 186 209 223 236 266 283 287 286 287 292 294 295 298 302 303 303 303 302 302 301 301 301 302 303 304 305 306 307 308 309 309 309 309 309 310 310 311 312 312 314 315 315 317 318 319 321 322
117 117 118 118 118 118 118 119 120 121 122 122 122 123 124 124 124 124 124 124 124 123 123 123 121 122 128 128 126 128 129 128 127 129 133 136 139 141 153 178 202 235 257 265 270 281 283 283 286 291 295 295 296 299 302 303 303 302 301 301 301 301 302 303 304 305 306 307 307 308 309 309 308 308 309 310 310 310 311 312 313 315 316 317 318 320 321 322
117 118 119 119 120 120 121 121 122 122 122 122 122 122 123 123 124 124 124 124 124 123 124 123 123 128 131 128 128 129 128 129 129 131 136 142 157 174 207 254 272 283 292 290 287 286 286 286 290 293 294 295 298 300 302 302 302 301 301 302 302 302 302 303 304 305 306 307 307 307 307 308 308 308 309 309 310 310 311 313 314 315 316 318 319 320 321 322
119 120 120 121 122 123 123 124 124 124 123 122 122 122 122 122 122 123 125 126 125 126 125 125 128 133 134 132 131 129 129 132 135 140 149 166 215 255 284 300 302 300 298 294 290 289 290 292 292 293 295 298 301 302 302 302 301 302 302 302 301 301 301 302 303 304 306 307 308 307 306 308 309 308 308 309 309 310 312 313 314 315 317 318 319 320 321 321
121 121 122 123 123 124 125 125 125 125 125 123 122 122 122 123 122 124 128 129 128 127 126 129 134 137 138 136 132 131 127 125 145 167 198 267 286 293 298 304 304 301 296 292 290 291 292 293 294 297 300 302 302 302 302 302 302 303 302 302 301 301 301 302 303 304 305 306 308 308 307 307 308 307 307 309 310 311 313 313 315 316 317 318 319 320 320 321
123 124 124 125 125 126 127 127 127 127 126 125 125 125 127 128 126 128 134 132 128 126 127 134 140 140 139 134 129 131 120 44 295 287 295 293 293 295 299 303 302 298 294 292 292 294 296 298 300 302 302 302 301 301 301 302 302 301 301 301 301 301 302 303 304 305 305 306 307 310 309 306 307 309 309 310 312 313 314 315 316 317 317 318 319 320 320 320
125 125 126 127 127 128 128 128 128 128 129 128 128 130 133 133 131 133 137 134 129 127 132 140 142 140 135 127 112 11 323 303 295 297 301 302 303 303 303 301 299 297 296 297 299 302 303 304 304 303 301 300 300 300 300 300 300 300 299 300 301 302 303 304 305 306 306 306 306 308 309 307 307 311 312 312 314 314 315 315 316 317 318 318 319 319 320 320
127 127 128 128 129 129 129 129 129 130 131 131 131 134 138 137 135 137 137 135 133 134 141 144 141 138 126 44 334 322 309 300 298 303 307 309 307 305 302 301 301 301 302 305 306 307 306 304 303 302 301 300 300 300 299 299 300 300 300 301 302 302 303 304 306 306 306 306 306 306 308 307 306 309 312 312 313 314 315 316 317 318 318 319 319 319 319 320
128 128 129 130 130 130 131 131 132 133 134 134 135 139 142 141 140 140 139 138 139 143 151 150 143 139 331 319 316 310 304 305 306 307 307 305 304 304 304 305 305 306 307 307 307 306 305 303 302 302 301 301 301 300 300 300 300 301 302 302 302 303 304 305 305 306 306 306 306 305 307 308 307 309 312 313 314 316 316 317 317 318 318 319 319 319 319 319
130 130 131 132 132 133 134 135 136 138 139 139 141 145 147 146 145 145 144 145 146 150 159 167 204 299 305 302 303 301 306 311 310 309 308 306 306 306 307 308 308 307 307 307 306 305 304 303 302 301 301 301 300 300 300 300 301 301 302 302 303 303 304 304 305 305 306 306 306 306 307 309 308 309 313 314 315 317 317 317 317 317 318 318 317 318 318 319
132 133 134 134 135 136 138 139 141 143 144 145 147 151 153 152 151 150 152 158 165 171 182 259 288 293 295 294 296 298 304 309 310 312 312 311 310 309 309 309 308 307 305 304 303 302 302 301 301 300 300 299 299 299 300 300 301 301 301 302 302 303 303 304 304 305 307 307 308 308 308 310 309 310 313 315 315 316 317 317 316 316 316 316 316 317 317 318
136 136 137 138 139 141 142 144 146 148 150 152 154 157 159 159 160 162 169 183 208 237 268 288 289 288 289 292 295 299 302 305 309 312 313 313 312 310 309 307 306 304 302 302 301 301 300 300 299 300 299 299 299 300 300 300 300 301 301 302 302 303 303 304 305 306 307 308 309 310 309 310 310 310 313 314 315 316 316 315 315 314 315 315 315 316 316 317
140 140 142 143 145 147 148 149 152 155 158 160 163 167 170 174 181 195 211 230 257 271 277 282 284 285 288 291 295 299 302 304 307 308 309 310 309 307 306 304 303 303 302 301 300 300 299 299 299 299 299 299 299 300 300 300 300 300 301 301 302 303 304 305 306 307 308 309 310 311 311 311 310 311 313 314 314 315 315 315 315 314 314 314 314 315 316 316
145 146 148 149 151 154 156 158 160 165 171 176 181 186 194 206 221 239 249 256 268 275 280 282 284 286 289 292 295 298 301 303 304 304 305 305 305 304 304 303 303 302 302 301 300 300 299 299 299 299 299 300 299 299 299 299 300 300 300 300 301 302 303 305 306 307 308 310 311 312 312 312 310 311 313 313 313 315 315 315 315 314 314 314 314 314 315 316
152 154 156 158 160 164 168 171 175 181 188 197 204 210 220 233 244 255 262 267 273 278 282 286 288 290 292 294 296 298 299 300 300 301 301 302 302 302 302 302 302 302 302 302 302 302 301 300 299 299 299 298 299 299 299 299 300 300 300 300 300 301 302 303 304 306 307 309 310 311 311 311 310 310 312 313 313 315 315 314 314 314 314 314 313 314 315 315
162 164 167 170 174 178 183 188 194 200 208 216 225 231 239 248 255 262 267 272 276 280 284 287 289 292 293 295 296 296 297 297 298 299 299 300 300 300 300 301 301 301 301 302 302 302 301 300 299 299 299 298 299 299 299 300 300 301 300 300 301 301 301 302 302 304 305 307 309 310 311 311 309 309 311 312 313 314 314 314 314 314 314 313 312 313 314 314
173 176 180 185 189 193 199 205 212 218 225 231 239 245 251 257 263 268 271 275 279 282 285 288 290 292 293 294 294 295 295 296 297 298 298 298 299 299 299 299 299 299 299 299 299 300 300 300 299 299 298 298 299 299 299 300 300 301 301 302 302 302 302 303 303 304 305 306 308 309 310 311 310 309 310 311 313 314 312 312 313 314 313 311 311 311 312 312
185 188 192 197 202 207 212 219 225 230 237 242 248 254 259 264 268 273 277 280 283 285 287 289 290 291 292 292 293 294 295 296 296 297 297 297 297 297 297 297 297 297 297 297 298 299 300 299 299 298 298 299 299 299 299 299 300 301 302 302 303 303 304 304 304 305 306 307 309 309 311 312 310 309 309 310 312 312 311 311 312 312 311 309 309 310 310 310
195 199 204 208 213 218 223 228 234 239 245 250 255 260 264 269 272 276 280 282 285 286 288 289 289 290 291 292 293 294 295 295 296 296 296 296 296 296 296 296 296 296 296 296 296 297 299 299 298 298 298 299 299 300 300 300 301 301 302 303 303 304 304 304 305 306 306 307 309 310 311 312 311 310 308 309 311 311 310 311 312 311 309 308 309 310 309 309
206 210 215 219 223 228 232 236 242 247 252 256 261 265 269 273 276 279 282 284 285 287 288 289 290 291 292 293 293 294 294 295 295 295 295 295 295 295 295 295 295 296 296 296 296 296 298 299 299 299 299 300 301 301 301 302 303 303 303 304 304 304 304 305 305 306 306 307 308 310 311 312 312 310 308 309 311 311 310 312 312 311 309 308 309 309 309 309
216 220 224 228 232 236 240 245 249 253 258 262 265 269 273 276 278 281 283 284 286 287 288 289 290 291 292 292 293 293 293 294 294 294 294 294 295 295 295 295 295 295 295 296 296 296 297 299 300 301 301 302 302 303 303 303 304 304 305 305 305 305 305 305 306 306 306 307 308 309 310 312 312 309 307 309 311 310 311 313 312 310 308 308 309 308 308 309
224 228 232 236 240 244 248 252 256 259 263 266 269 272 275 277 279 281 283 284 286 287 288 289 290 291 291 292 292 292 292 292 293 293 293 293 294 294 294 295 295 295 295 295 296 296 297 299 300 301 301 302 302 303 303 304 304 305 305 305 305 305 305 305 306 307 307 307 308 308 309 313 312 308 307 309 308 308 310 311 310 308 308 308 307 307 308 309
231 234 239 243 247 251 255 258 261 264 267 269 271 273 275 277 279 281 282 284 285 287 287 288 289 289 290 290 291 291 291 292 292 292 293 293 293 294 294 294 294 295 295 295 296 297 297 298 300 301 301 302 302 303 303 304 304 305 305 305 305 305 305 305 306 307 307 307 308 307 309 315 311 307 308 308 307 308 309 308 308 307 306 306 306 307 307 308
241 244 247 250 253 256 260 262 265 267 269 271 272 274 276 278 279 281 282 284 285 285 286 287 288 288 289 289 290 290 291 292 292 292 292 293 293 293 294 294 295 295 296 296 297 297 298 299 300 301 301 302 302 303 303 304 305 305 305 305 305 305 305 305 306 306 306 307 308 307 310 313 309 306 308 306 306 307 307 306 306 305 305 305 305 306 307 308
248 251 253 256 259 261 263 266 268 270 271 273 274 276 277 278 280 281 282 283 284 285 286 286 287 288 288 289 290 290 291 291 292 292 293 293 293 294 294 295 296 296 297 297 298 298 299 300 300 301 302 302 302 303 303 304 305 305 305 305 305 305 305 306 306 306 306 307 306 306 309 310 307 306 306 305 305 306 305 304 304 304 304 304 304 305 306 306
253 256 258 260 263 265 267 269 270 272 273 274 275 276 277 278 279 280 282 283 283 284 285 286 287 288 288 289 290 290 291 291 292 293 294 294 295 295 296 296 297 297 298 298 299 299 300 300 300 301 302 302 302 303 303 304 305 306 305 305 305 305 305 306 306 305 305 306 305 306 307 306 305 305 304 303 305 304 303 303 302 302 302 303 304 304 304 305
256 259 261 263 265 267 268 269 270 271 272 273 275 276 277 278 279 280 282 283 283 284 285 286 287 288 288 289 290 291 291 292 293 294 295 296 296 296 297 297 297 298 298 299 299 300 301 301 301 301 302 301 301 301 302 303 304 304 303 303 302 302 303 303 302 302 303 303 304 305 304 304 304 304 303 303 304 303 302 302 301 302 302 302 303 303 303 304
258 261 263 265 266 267 268 269 271 272 273 275 276 277 278 279 280 281 282 283 284 285 286 287 288 289 290 290 291 292 293 294 294 295 296 296 297 297 297 298 298 299 299 300 300 301 302 302 302 303 303 302 301 301 301 302 302 302 301 300 300 300 300 299 299 300 301 302 303 303 302 303 303 302 303 304 303 302 302 301 301 302 302 302 302 303 303 304
261 263 265 267 268 269 270 272 273 274 276 277 278 278 279 280 281 282 283 284 285 286 287 288 289 290 291 292 293 294 295 295 296 296 297 297 297 298 298 299 299 300 300 301 301 302 302 302 303 304 304 304 303 303 304 304 304 303 302 301 300 300 300 299 300 301 302 303 304 303 302 302 302 302 303 303 301 301 301 300 300 301 301 301 302 302 303 303
265 267 268 270 271 272 274 275 276 277 278 279 280 280 281 282 283 284 285 286 287 288 290 291 292 293 294 294 295 296 296 297 297 298 298 299 299 299 300 300 300 300 300 301 301 301 301 302 302 303 304 303 303 304 304 304 305 304 302 301 300 299 299 300 302 303 304 304 304 302 302 302 302 303 303 302 301 301 301 300 300 300 300 301 301 301 302 301
268 269 270 272 273 275 276 277 278 279 280 281 282 283 284 285 286 287 288 289 290 291 292 293 293 294 295 295 296 296 297 298 298 299 299 299 299 300 300 300 300 300 300 300 300 300 301 301 301 302 302 302 302 302 302 302 303 302 300 299 298 298 299 301 303 304 304 303 302 301 301 302 302 302 302 301 301 302 302 301 301 301 301 301 301 301 301 301
269 271 273 274 276 277 278 279 281 282 282 283 284 285 286 287 289 290 291 291 292 293 293 294 294 295 296 296 296 297 297 297 297 298 298 298 298 298 299 299 299 299 300 300 300 300 300 300 300 300 299 299 299 299 299 300 300 300 298 297 297 298 300 302 303 303 302 301 301 301 301 302 301 301 301 301 302 302 302 301 301 301 301 301 301 301 300 301
272 274 275 276 277 279 280 281 282 283 284 285 287 288 289 290 290 291 292 292 293 293 294 294 295 295 296 296 296 296 296 297 297 297 297 297 298 298 298 299 299 299 300 300 299 299 299 299 298 298 298 298 298 298 299 300 300 299 297 297 298 300 302 304 303 302 301 301 300 301 301 301 301 301 301 302 303 302 301 300 300 300 300 300 300 300 300 301
273 274 276 277 278 280 281 283 284 285 286 287 288 289 289 290 290 291 291 292 293 293 294 294 295 295 296 296 297 297 298 298 298 298 299 299 299 299 299 299 299 300 300 300 300 300 300 300 300 299 300 300 300 300 301 302 301 300 298 298 300 303 304 304 303 303 302 301 301 301 301 301 300 301 301 302 302 301 300 299 299 300 300 299 299 300 300 300
274 276 278 279 281 282 283 284 285 286 287 287 288 288 289 289 290 291 291 292 293 293 294 295 295 296 297 297 298 299 299 300 300 300 300 300 301 301 301 301 301 302 303 303 303 304 304 304 304 304 304 304 304 304 305 305 303 301 299 301 303 304 303 304 305 304 303 303 303 302 302 302 302 302 302 302 302 301 299 299 298 299 299 299 299 299 299 299
Height
10689 10687 10685 10683 10682 10681 10681 10680 10680 10680 10681 10681 10682 10682 10683 10684 10684 10685 10686 10688 10689 10691 10693 10695 10697 10698 10700 10702 10703 10705 10707 10709 10712 10714 10716 10718 10720 10722 10724 10727 10729 10731 10733 10735 10737 10738 10740 10742 10744 10745 10747 10748 10749 10750 10751 10751 10752 10752 10752 10752 10752 10751 10751 10750 10750 10749 10748 10747 10746 10745 10743 10742 10740 10739 10737 10735 10733 10731 10729 10727 10725 10723 10721 10718 10716 10713 10711 10708
10683 10681 10679 10678 10677 10676 10676 10676 10676 10676 10677 10677 10678 10679 10679 10680 10681 10682 10684 10686 10688 10690 10692 10694 10695 10697 10699 10701 10703 10705 10708 10710 10713 10715 10718 10720 10722 10724 10727 10729 10731 10733 10735 10737 10739 10740 10742 10744 10746 10747 10749 10750 10750 10751 10752 10752 10752 10752 10752 10752 10752 10751 10751 10750 10749 10748 10747 10746 10744 10743 10741 10740 10738 10737 10735 10733 10731 10728 10726 10724 10722 10720 10718 10715 10713 10710 10707 10705
10677 10675 10674 10673 10672 10672 10672 10672 10672 10673 10673 10674 10675 10675 10676 10677 10679 10681 10683 10684 10687 10689 10691 10693 10695 10697 10699 10702 10704 10706 10709 10712 10715 10718 10720 10722 10725 10727 10729 10732 10734 10736 10738 10740 10742 10743 10745 10747 10748 10749 10750 10751 10751 10752 10752 10752 10753 10752 10752 10752 10751 10751 10750 10749 10748 10747 10746 10744 10743 10741 10739 10738 10736 10734 10732 10730 10728 10726 10724 10722 10719 10717 10715 10712 10709 10707 10704 10701
10671 10670 10669 10669 10668 10668 10668 10669 10669 10670 10671 10671 10672 10673 10674 10676 10678 10680 10682 10684 10686 10689 10691 10693 10696 10698 10701 10703 10706 10709 10711 10714 10717 10721 10723 10726 10728 10730 10733 10735 10737 10739 10741 10743 10745 10746 10748 10749 10750 10750 10751 10752 10752 10753 10753 10753 10753 10752 10752 10751 10751 10751 10750 10749 10747 10746 10744 10743 10741 10739 10737 10735 10734 10732 10730 10727 10725 10723 10721 10719 10716 10714 10711 10709 10706 10703 10700 10697
10667 10666 10665 10665 10665 10666 10666 10667 10667 10668 10669 10670 10671 10672 10674 10675 10677 10680 10682 10684 10687 10689 10692 10695 10697 10700 10703 10706 10709 10712 10715 10718 10721 10724 10727 10729 10732 10734 10737 10738 10740 10743 10744 10746 10747 10748 10749 10750 10751 10752 10753 10753 10753 10753 10753 10753 10753 10752 10752 10751 10751 10750 10749 10748 10746 10745 10743 10742 10739 10737 10735 10733 10731 10729 10727 10725 10723 10720 10718 10716 10713 10710 10708 10705 10703 10700 10697 10694
10664 10663 10663 10663 10663 10664 10665 10665 10666 10667 10668 10669 10671 10672 10674 10676 10678 10681 10683 10686 10688 10691 10694 10697 10700 10704 10707 10710 10712 10715 10718 10721 10724 10727 10730 10733 10735 10738 10740 10742 10744 10745 10747 10748 10749 10750 10751 10752 10753 10753 10754 10754 10754 10754 10754 10754 10753 10752 10752 10751 10750 10749 10748 10747 10745 10744 10742 10740 10738 10736 10733 10731 10729 10727 10724 10722 10720 10717 10715 10712 10710 10707 10705 10702 10699 10697 10694 10691
10662 10662 10662 10662 10663 10663 10664 10665 10666 10667 10669 10670 10672 10674 10676 10678 10681 10683 10686 10688 10691 10694 10698 10701 10704 10708 10711 10714 10716 10719 10722 10725 10728 10731 10734 10736 10739 10741 10743 10745 10746 10748 10749 10750 10751 10752 10753 10753 10754 10754 10754 10754 10754 10754 10754 10754 10753 10752 10751 10751 10750 10748 10747 10745 10744 10742 10740 10738 10736 10734 10731 10729 10727 10724 10722 10720 10717 10715 10712 10710 10707 10705 10702 10700 10697 10694 10691 10688
10661 10661 10662 10662 10663 10664 10665 10666 10668 10669 10671 10673 10674 10676 10679 10681 10684 10686 10689 10692 10695 10698 10701 10705 10708 10712 10715 10718 10721 10724 10726 10729 10732 10735 10738 10740 10742 10744 10746 10747 10749 10750 10751 10752 10753 10754 10754 10755 10755 10755 10755 10755 10755 10754 10754 10753 10753 10752 10751 10750 10748 10747 10745 10744 10742 10740 10738 10736 10734 10731 10729 10727 10724 10722 10720 10717 10715 10712 10710 10707 10704 10702 10699 10697 10694 10691 10688 10684
10662 10663 10663 10664 10665 10666 10667 10669 10670 10672 10674 10675 10677 10679 10682 10685 10688 10691 10693 10695 10698 10701 10705 10708 10712 10716 10719 10722 10725 10729 10732 10734 10736 10739 10741 10743 10745 10747 10748 10750 10751 10752 10753 10754 10754 10755 10755 10756 10756 10756 10756 10755 10754 10754 10754 10753 10752 10751 10750 10749 10747 10745 10744 10742 10740 10738 10736 10734 10731 10729 10726 10724 10722 10719 10716 10714 10712 10709 10707 10704 10701 10698 10696 10693 10690 10687 10683 10680
10664 10665 10666 10667 10668 10669 10670 10672 10674 10675 10677 10678 10680 10683 10686 10689 10692 10695 10697 10699 10702 10705 10709 10713 10717 10720 10723 10726 10729 10733 10736 10738 10740 10742 10744 10746 10748 10749 10750 10751 10753 10754 10754 10755 10756 10756 10756 10756 10756 10756 10756 10755 10754 10754 10753 10752 10751 10750 10749 10747 10746 10744 10742 10741 10739 10736 10734 10731 10729 10726 10724 10721 10718 10716 10713 10711 10708 10706 10703 10700 10697 10694 10691 10689 10685 10682 10679 10675
10668 10668 10670 10671 10672 10673 10674 10675 10677 10678 10680 10682 10685 10688 10691 10694 10697 10699 10702 10704 10707 10711 10715 10718 10722 10725 10728 10731 10733 10736 10740 10742 10744 10745 10747 10749 10750 10751 10752 10753 10754 10755 10755 10755 10756 10756 10757 10757 10756 10756 10756 10755 10754 10753 10752 10751 10750 10749 10747 10746 10744 10742 10740 10739 10737 10734 10732 10729 10726 10723 10721 10718 10715 10712 10709 10707 10704 10702 10699 10696 10693 10690 10687 10684 10681 10677 10674 10670
10671 10673 10674 10675 10676 10677 10678 10679 10680 10682 10684 10687 10690 10694 10697 10699 10702 10705 10708 10710 10713 10717 10720 10724 10727 10730 10733 10735 10737 10740 10742 10744 10746 10748 10749 10750 10751 10752 10753 10754 10754 10755 10755 10756 10756 10756 10756 10756 10756 10755 10754 10754 10753 10752 10751 10750 10748 10747 10745 10744 10742 10740 10738 10736 10734 10732 10729 10726 10723 10720 10717 10714 10711 10709 10706 10703 10700 10697 10694 10691 10689 10686 10683 10679 10676 10672 10669 10665
10676 10677 10678 10679 10680 10681 10682 10684 10685 10688 10690 10693 10696 10700 10703 10706 10708 10711 10714 10717 10720 10723 10725 10728 10732 10734 10737 10738 10740 10743 10744 10746 10748 10749 10750 10751 10752 10752 10753 10753 10754 10754 10755 10755 10755 10756 10755 10755 10755 10754 10753 10753 10752 10751 10749 10748 10747 10745 10744 10742 10740 10738 10736 10733 10731 10729 10726 10723 10720 10717 10714 10711 10708 10705 10701 10699 10696 10693 10690 10687 10684 10681 10678 10674 10671 10667 10664 10660
10680 10682 10683 10684 10685 10686 10688 10689 10691 10694 10696 10699 10702 10705 10708 10711 10714 10716 10719 10722 10725 10728 10730 10733 10736 10737 10739 10741 10743 10745 10747 10748 10750 10751 10752 10753 10754 10754 10754 10754 10755 10755 10755 10755 10755 10755 10755 10754 10754 10753 10752 10752 10751 10749 10748 10746 10745 10743 10742 10740 10738 10735 10733 10730 10728 10725 10723 10720 10717 10714 10711 10708 10704 10701 10698 10694 10691 10689 10686 10683 10680 10676 10673 10669 10666 10662 10658 10654
10685 10687 10689 10690 10692 10694 10695 10696 10698 10700 10703 10705 10708 10711 10713 10716 10719 10721 10724 10727 10729 10732 10734 10736 10739 10741 10741 10744 10746 10747 10749 10750 10751 10752 10753 10754 10755 10755 10755 10756 10756 10756 10756 10756 10756 10755 10755 10754 10753 10753 10752 10751 10749 10748 10746 10744 10743 10741 10739 10737 10735 10733 10730 10727 10725 10722 10720 10717 10714 10711 10707 10704 10700 10697 10693 10690 10687 10685 10682 10679 10675 10671 10668 10664 10661 10657 10653 10649
10691 10693 10695 10697 10699 10701 10702 10704 10705 10707 10709 10711 10714 10716 10718 10720 10723 10725 10728 10730 10733 10736 10738 10740 10742 10744 10745 10747 10749 10750 10751 10752 10753 10754 10754 10755 10756 10756 10756 10756 10756 10756 10756 10756 10755 10755 10754 10753 10752 10752 10751 10750 10748 10746 10744 10742 10741 10739 10737 10735 10733 10730 10727 10724 10721 10719 10716 10714 10711 10707 10704 10701 10697 10693 10689 10686 10683 10680 10677 10673 10670 10666 10663 10659 10656 10652 10647 10643
10697 10699 10701 10703 10705 10707 10709 10711 10713 10715 10716 10718 10719 10721 10723 10725 10727 10730 10732 10734 10737 10739 10742 10744 10744 10745 10748 10750 10750 10751 10752 10753 10754 10754 10755 10756 10756 10756 10756 10756 10756 10756 10756 10755 10755 10754 10753 10752 10751 10750 10749 10748 10746 10744 10742 10740 10738 10737 10734 10732 10730 10727 10724 10721 10718 10715 10712 10710 10707 10704 10700 10697 10694 10689 10685 10682 10678 10675 10671 10668 10665 10661 10658 10654 10650 10646 10642 10637
10702 10705 10707 10709 10711 10713 10715 10717 10719 10721 10723 10725 10726 10727 10728 10730 10732 10734 10736 10739 10741 10742 10745 10748 10747 10747 10750 10751 10751 10752 10753 10754 10754 10755 10756 10756 10756 10757 10756 10756 10756 10756 10755 10754 10753 10752 10752 10751 10750 10749 10748 10746 10744 10742 10740 10738 10736 10734 10732 10729 10726 10724 10721 10718 10715 10712 10709 10706 10703 10701 10697 10692 10689 10686 10681 10677 10674 10671 10667 10663 10660 10656 10652 10649 10645 10641 10636 10631
10707 10710 10712 10715 10717 10719 10721 10723 10725 10727 10729 10731 10733 10734 10734 10735 10736 10738 10740 10742 10743 10745 10748 10750 10750 10751 10753 10753 10754 10754 10754 10755 10755 10756 10756 10757 10757 10757 10756 10756 10756 10755 10754 10753 10752 10752 10751 10750 10748 10747 10746 10744 10742 10740 10738 10736 10733 10731 10729 10726 10723 10720 10717 10714 10711 10708 10705 10701 10698 10696 10693 10688 10684 10681 10677 10674 10670 10666 10662 10659 10655 10651 10647 10643 10639 10634 10630 10625
10713 10715 10717 10719 10721 10723 10725 10727 10730 10732 10734 10736 10738 10740 10741 10742 10742 10742 10743 10745 10746 10748 10750 10751 10752 10754 10755 10755 10756 10756 10756 10756 10757 10757 10757 10757 10757 10756 10756 10756 10755 10754 10754 10753 10752 10751 10750 10748 10747 10745 10743 10741 10739 10737 10735 10733 10730 10728 10725 10722 10719 10716 10713 10710 10708 10704 10701 10698 10693 10690 10689 10686 10679 10675 10673 10670 10666 10662 10658 10654 10649 10645 10642 10637 10632 10627 10623 10618
10719 10721 10722 10724 10726 10728 10730 10731 10733 10736 10738 10740 10742 10744 10746 10747 10748 10748 10748 10748 10749 10750 10751 10752 10754 10755 10756 10756 10757 10757 10757 10758 10757 10757 10757 10757 10757 10756 10756 10755 10755 10754 10753 10753 10751 10750 10748 10746 10744 10742 10740 10738 10736 10734 10732 10729 10727 10724 10721 10719 10716 10713 10710 10707 10704 10701 10698 10695 10690 10684 10681 10682 10677 10670 10668 10665 10661 10657 10653 10649 10645 10640 10636 10631 10626 10621 10615 10611
10724 10726 10727 10729 10730 10732 10734 10736 10737 10739 10740 10743 10745 10747 10749 10750 10751 10753 10753 10751 10751 10752 10753 10754 10756 10757 10758 10758 10758 10758 10758 10758 10758 10757 10757 10757 10756 10756 10755 10755 10754 10753 10752 10751 10750 10748 10746 10744 10742 10740 10738 10736 10733 10731 10729 10726 10723 10721 10718 10715 10712 10710 10707 10703 10700 10697 10694 10692 10688 10681 10673 10673 10674 10667 10662 10660 10656 10651 10647 10643 10639 10634 10629 10625 10620 10615 10609 10604
10728 10730 10732 10733 10735 10737 10738 10740 10741 10743 10743 10744 10746 10749 10751 10752 10752 10754 10756 10755 10754 10754 10755 10756 10757 10758 10759 10759 10759 10759 10759 10758 10758 10758 10757 10757 10756 10756 10755 10754 10753 10752 10751 10749 10747 10745 10743 10741 10739 10737 10735 10733 10731 10728 10725 10723 10720 10717 10714 10711 10708 10705 10702 10699 10696 10692 10689 10687 10685 10681 10670 10663 10666 10665 10656 10653 10650 10644 10640 10636 10632 10628 10623 10618 10613 10609 10603 10597
10733 10734 10736 10737 10739 10741 10742 10744 10745 10746 10747 10747 10748 10750 10752 10753 10753 10755 10756 10757 10757 10757 10757 10758 10759 10759 10759 10759 10759 10759 10759 10759 10758 10758 10757 10757 10756 10755 10754 10753 10752 10750 10749 10747 10745 10743 10741 10739 10737 10735 10732 10730 10728 10725 10722 10719 10716 10713 10710 10707 10704 10701 10698 10695 10692 10687 10684 10681 10679 10679 10673 10658 10655 10660 10653 10646 10643 10638 10633 10629 10625 10621 10615 10610 10606 10601 10596 10590
10737 10739 10740 10741 10743 10744 10746 10748 10749 10750 10751 10751 10750 10752 10754 10754 10755 10756 10757 10758 10758 10758 10759 10759 10759 10759 10759 10759 10759 10759 10759 10759 10758 10758 10757 10756 10755 10754 10753 10751 10750 10748 10746 10744 10742 10741 10739 10737 10734 10732 10729 10727 10724 10721 10718 10715 10712 10709 10706 10703 10699 10696 10693 10690 10687 10683 10678 10675 10671 10671 10673 10661 10650 10653 10651 10643 10639 10635 10628 10623 10617 10613 10608 10602 10597 10592 10588 10583
10742 10743 10744 10746 10747 10748 10749 10750 10752 10752 10753 10754 10754 10754 10755 10756 10756 10757 10757 10758 10759 10759 10759 10759 10759 10759 10759 10759 10759 10759 10759 10758 10757 10757 10756 10755 10754 10752 10751 10749 10747 10746 10744 10742 10740 10738 10736 10733 10731 10728 10726 10723 10720 10717 10714 10711 10708 10705 10701 10698 10695 10691 10688 10685 10682 10679 10674 10670 10666 10662 10664 10661 10649 10646 10646 10639 10634 10629 10622 10616 10610 10605 10600 10594 10588 10584 10579 10575
10746 10747 10748 10749 10750 10751 10752 10753 10754 10755 10755 10756 10756 10757 10757 10757 10757 10758 10758 10758 10759 10759 10759 10759 10759 10759 10759 10759 10758 10758 10757 10757 10756 10755 10754 10753 10752 10750 10748 10747 10745 10743 10742 10740 10737 10735 10732 10730 10727 10725 10722 10719 10716 10713 10709 10707 10703 10700 10697 10693 10690 10687 10684 10681 10677 10675 10670 10664 10661 10655 10653 10653 10645 10641 10641 10634 10628 10624 10617 10609 10603 10597 10593 10588 10582 10576 10571 10567
10749 10750 10751 10752 10753 10754 10754 10755 10756 10757 10757 10758 10758 10758 10759 10759 10759 10759 10759 10759 10759 10759 10759 10759 10759 10759 10758 10758 10757 10756 10756 10755 10754 10753 10752 10750 10749 10747 10746 10744 10742 10741 10739 10737 10734 10732 10729 10726 10724 10721 10718 10715 10712 10708 10705 10702 10699 10695 10692 10688 10685 10682 10679 10676 10672 10670 10666 10659 10655 10649 10645 10644 10639 10635 10636 10631 10625 10620 10613 10605 10597 10591 10587 10582 10576 10570 10564 10559
10752 10753 10754 10755 10755 10756 10757 10757 10758 10758 10759 10759 10760 10760 10760 10760 10760 10760 10760 10760 10760 10760 10760 10759 10759 10758 10758 10757 10756 10755 10754 10753 10752 10751 10749 10748 10746 10745 10743 10741 10740 10738 10735 10733 10731 10728 10725 10723 10720 10717 10713 10710 10707 10704 10700 10697 10694 10690 10687 10684 10680 10677 10674 10670 10667 10664 10661 10655 10649 10643 10637 10635 10632 10628 10629 10626 10620 10616 10610 10602 10594 10586 10580 10575 10570 10565 10559 10553
10755 10755 10756 10757 10757 10758 10759 10759 10760 10760 10761 10761 10761 10761 10761 10762 10761 10761 10761 10761 10761 10760 10760 10759 10758 10757 10757 10756 10755 10754 10753 10752 10750 10749 10747 10745 10744 10742 10740 10738 10736 10734 10732 10730 10727 10724 10722 10718 10716 10712 10709 10706 10702 10699 10695 10691 10689 10685 10682 10679 10675 10672 10669 10665 10661 10658 10656 10651 10645 10638 10631 10625 10622 10621 10621 10618 10614 10611 10605 10597 10588 10579 10572 10566 10561 10558 10553 10546
10757 10758 10758 10759 10759 10760 10760 10761 10761 10761 10762 10762 10762 10762 10762 10762 10761 10761 10761 10760 10760 10759 10759 10758 10757 10756 10756 10755 10754 10752 10751 10750 10748 10746 10744 10742 10741 10739 10737 10735 10733 10731 10728 10726 10723 10720 10717 10714 10711 10707 10704 10701 10697 10693 10690 10686 10683 10680 10676 10673 10671 10668 10665 10661 10657 10653 10650 10647 10642 10635 10627 10618 10610 10610 10614 10610 10605 10603 10598 10591 10583 10573 10565 10557 10550 10547 10544 10538
10759 10759 10760 10760 10760 10761 10761 10761 10762 10762 10762 10762 10762 10761 10761 10761 10760 10760 10760 10759 10759 10758 10758 10757 10756 10755 10754 10753 10752 10750 10749 10747 10745 10743 10741 10739 10737 10735 10733 10731 10729 10727 10724 10722 10719 10715 10711 10708 10706 10702 10698 10695 10692 10688 10684 10680 10678 10674 10670 10667 10664 10662 10661 10658 10654 10650 10647 10644 10639 10632 10625 10615 10602 10599 10605 10602 10597 10594 10589 10584 10578 10568 10559 10550 10542 10538 10534 10529
10759 10760 10761 10761 10761 10761 10761 10762 10762 10762 10762 10761 10761 10761 10760 10760 10760 10759 10759 10758 10758 10757 10756 10756 10755 10753 10752 10751 10749 10747 10746 10744 10742 10740 10738 10736 10734 10731 10730 10727 10725 10723 10720 10718 10715 10711 10706 10702 10699 10697 10692 10688 10686 10682 10678 10675 10672 10668 10664 10660 10657 10655 10654 10653 10651 10648 10646 10642 10637 10629 10622 10613 10596 10589 10595 10594 10590 10587 10581 10576 10571 10562 10552 10543 10536 10531 10527 10521
10759 10760 10761 10761 10761 10761 10762 10762 10762 10762 10761 10761 10761 10760 10760 10759 10759 10758 10758 10757 10757 10756 10755 10754 10752 10751 10750 10748 10746 10744 10742 10740 10738 10736 10734 10732 10730 10727 10725 10723 10720 10718 10716 10713 10710 10707 10702 10696 10692 10690 10687 10683 10680 10676 10672 10669 10666 10663 10658 10654 10651 10647 10644 10644 10642 10641 10641 10640 10636 10626 10620 10611 10592 10580 10583 10584 10582 10579 10572 10567 10563 10555 10546 10536 10529 10525 10521 10516
10759 10760 10760 10760 10761 10761 10761 10761 10761 10761 10761 10760 10760 10760 10759 10759 10758 10757 10757 10756 10755 10754 10753 10751 10750 10748 10747 10745 10743 10741 10739 10737 10735 10732 10730 10728 10725 10723 10720 10718 10716 10712 10710 10707 10705 10703 10698 10691 10686 10684 10680 10677 10674 10670 10666 10663 10661 10658 10653 10649 10645 10641 10637 10634 10632 10631 10629 10631 10633 10625 10618 10611 10590 10573 10570 10572 10574 10571 10563 10559 10555 10548 10538 10529 10523 10517 10512 10507
10759 10760 10760 10760 10760 10760 10760 10760 10760 10760 10760 10759 10759 10758 10758 10757 10756 10756 10755 10754 10753 10751 10750 10748 10747 10745 10743 10741 10739 10737 10735 10733 10731 10728 10726 10723 10720 10718 10715 10713 10710 10707 10704 10702 10699 10698 10695 10687 10680 10677 10675 10671 10669 10665 10660 10657 10655 10652 10648 10644 10639 10635 10630 10625 10624 10622 10617 10619 10624 10620 10614 10608 10591 10571 10559 10558 10562 10559 10552 10549 10545 10537 10528 10520 10515 10508 10500 10496
10759 10759 10760 10760 10760 10760 10760 10759 10759 10759 10759 10758 10758 10757 10756 10756 10755 10754 10752 10751 10750 10749 10747 10745 10743 10742 10740 10738 10736 10734 10731 10729 10726 10724 10721 10718 10715 10712 10710 10707 10704 10701 10698 10696 10693 10691 10690 10686 10677 10671 10669 10666 10662 10659 10654 10650 10647 10644 10641 10636 10631 10627 10622 10617 10614 10612 10608 10608 10613 10614 10609 10602 10589 10571 10554 10547 10547 10543 10538 10535 10530 10522 10514 10510 10506 10498 10489 10484
10759 10759 10759 10759 10759 10759 10759 10758 10758 10758 10757 10757 10756 10755 10755 10753 10752 10751 10750 10749 10747 10745 10744 10742 10740 10739 10736 10734 10732 10729 10727 10724 10722 10719 10717 10714 10710 10707 10704 10702 10699 10696 10693 10690 10688 10685 10684 10684 10676 10668 10664 10661 10656 10652 10648 10644 10639 10635 10631 10626 10622 10617 10612 10608 10604 10600 10597 10596 10599 10603 10603 10597 10584 10568 10554 10545 10537 10530 10527 10525 10518 10508 10501 10497 10493 10487 10478 10472
10758 10758 10758 10758 10758 10758 10758 10757 10757 10756 10756 10755 10754 10753 10752 10751 10750 10748 10747 10746 10744 10742 10741 10738 10737 10735 10733 10730 10728 10725 10722 10720 10717 10714 10712 10709 10706 10702 10699 10697 10693 10690 10687 10684 10682 10679 10677 10678 10675 10667 10660 10656 10652 10646 10642 10637 10632 10628 10623 10617 10612 10607 10602 10598 10595 10590 10584 10581 10583 10585 10591 10592 10575 10558 10552 10544 10531 10523 10520 10517 10510 10499 10491 10484 10479 10475 10469 10463
10757 10757 10757 10757 10757 10756 10756 10756 10755 10754 10753 10752 10752 10750 10749 10748 10747 10745 10744 10742 10741 10739 10737 10735 10733 10731 10728 10726 10723 10720 10717 10714 10712 10709 10706 10704 10701 10697 10694 10691 10688 10684 10682 10679 10676 10674 10671 10671 10670 10664 10656 10650 10645 10640 10636 10630 10625 10621 10615 10609 10603 10597 10592 10588 10587 10584 10575 10569 10568 10564 10573 10582 10565 10547 10544 10535 10524 10518 10511 10505 10500 10490 10482 10475 10467 10463 10459 10454
10756 10756 10756 10755 10755 10755 10754 10754 10753 10752 10751 10750 10749 10748 10746 10745 10744 10742 10740 10738 10737 10735 10733 10731 10728 10726 10724 10721 10719 10716 10712 10709 10706 10704 10701 10698 10695 10693 10689 10686 10683 10679 10676 10673 10669 10667 10665 10663 10662 10659 10652 10645 10639 10633 10627 10622 10617 10612 10606 10600 10594 10587 10581 10576 10576 10575 10567 10561 10556 10548 10557 10566 10552 10540 10537 10524 10515 10512 10501 10492 10488 10479 10471 10464 10458 10453 10448 10444
10755 10754 10754 10754 10753 10753 10752 10751 10750 10749 10748 10747 10746 10745 10743 10741 10740 10738 10736 10734 10732 10730 10728 10726 10724 10721 10719 10716 10714 10711 10708 10705 10701 10698 10696 10692 10689 10687 10684 10680 10677 10673 10669 10666 10662 10659 10656 10654 10653 10651 10646 10639 10633 10627 10621 10616 10611 10604 10595 10588 10583 10577 10571 10564 10561 10560 10556 10552 10546 10539 10545 10550 10538 10530 10527 10515 10508 10503 10490 10480 10475 10467 10459 10453 10447 10443 10437 10433
10753 10752 10752 10752 10751 10751 10750 10749 10747 10746 10745 10743 10742 10741 10739 10737 10736 10734 10732 10730 10728 10726 10724 10722 10719 10717 10714 10712 10709 10707 10703 10700 10697 10693 10690 10687 10683 10680 10677 10673 10670 10666 10662 10659 10655 10652 10648 10644 10643 10644 10642 10634 10625 10618 10612 10609 10605 10596 10585 10575 10570 10566 10562 10556 10549 10545 10542 10540 10535 10530 10531 10533 10527 10520 10513 10506 10501 10493 10480 10470 10463 10456 10449 10442 10437 10431 10426 10421
10751 10750 10750 10749 10748 10747 10746 10745 10744 10742 10741 10740 10738 10737 10735 10733 10732 10730 10728 10726 10724 10722 10720 10717 10715 10712 10710 10707 10705 10702 10699 10696 10693 10689 10686 10682 10677 10673 10669 10666 10662 10658 10654 10651 10647 10644 10640 10635 10630 10631 10633 10629 10622 10615 10608 10606 10601 10592 10580 10568 10561 10559 10555 10549 10542 10537 10534 10531 10528 10522 10517 10517 10516 10507 10500 10496 10490 10481 10470 10459 10450 10443 10437 10430 10425 10420 10415 10410
10748 10747 10746 10745 10744 10744 10742 10741 10740 10739 10737 10736 10735 10733 10731 10730 10728 10726 10724 10721 10719 10717 10716 10713 10710 10708 10705 10703 10700 10697 10693 10691 10688 10684 10680 10676 10672 10666 10662 10658 10653 10649 10645 10642 10638 10635 10632 10625 10619 10616 10615 10611 10608 10605 10602 10600 10597 10588 10575 10561 10552 10549 10545 10539 10534 10531 10528 10525 10523 10514 10504 10503 10502 10494 10489 10485 10476 10468 10460 10449 10439 10432 10424 10417 10412 10409 10405 10400
10745 10744 10743 10742 10741 10740 10739 10737 10736 10735 10734 10732 10731 10729 10727 10725 10723 10721 10720 10717 10715 10713 10711 10709 10706 10704 10701 10698 10695 10692 10688 10684 10681 10677 10673 10668 10664 10659 10654 10650 10645 10641 10637 10632 10629 10626 10623 10617 10610 10607 10601 10592 10587 10586 10583 10582 10581 10574 10562 10547 10537 10532 10528 10524 10522 10520 10517 10514 10512 10503 10491 10488 10487 10480 10478 10473 10463 10456 10450 10441 10433 10425 10416 10408 10402 10398 10394 10387
10741 10740 10739 10738 10737 10736 10735 10734 10733 10731 10730 10728 10726 10724 10723 10721 10719 10717 10715 10713 10711 10709 10707 10705 10702 10699 10696 10693 10689 10686 10682 10677 10673 10670 10665 10660 10656 10651 10646 10641 10636 10631 10627 10623 10619 10616 10614 10609 10603 10600 10594 10582 10575 10573 10570 10566 10564 10558 10545 10532 10523 10517 10514 10512 10511 10510 10506 10500 10496 10489 10479 10474 10472 10467 10463 10457 10450 10444 10437 10429 10423 10417 10409 10403 10396 10391 10386 10378
10738 10737 10736 10735 10734 10732 10731 10730 10728 10727 10725 10724 10722 10720 10718 10717 10715 10713 10711 10709 10707 10704 10702 10700 10696 10693 10691 10687 10684 10680 10676 10672 10667 10662 10657 10652 10648 10642 10636 10631 10626 10621 10617 10613 10608 10605 10603 10600 10595 10594 10589 10577 10567 10564 10561 10557 10554 10545 10529 10516 10509 10505 10505 10508 10506 10501 10496 10487 10479 10473 10469 10464 10459 10454 10449 10443 10437 10432 10424 10416 10410 10405 10399 10393 10387 10383 10377 10371
10735 10733 10732 10732 10730 10729 10727 10726 10725 10723 10721 10720 10718 10716 10715 10713 10711 10709 10707 10704 10701 10699 10696 10694 10691 10687 10684 10681 10677 10673 10670 10666 10662 10657 10651 10645 10640 10634 10628 10623 10617 10612 10608 10604 10598 10594 10592 10589 10584 10584 10583 10572 10561 10557 10553 10549 10546 10535 10517 10501 10494 10495 10500 10503 10499 10491 10484 10476 10466 10460 10458 10455 10447 10439 10436 10433 10429 10422 10412 10402 10397 10393 10388 10382 10376 10371 10367 10362
10731 10730 10729 10728 10727 10725 10724 10722 10721 10720 10718 10716 10715 10712 10711 10709 10706 10703 10701 10698 10696 10693 10690 10687 10684 10681 10678 10674 10670 10666 10661 10658 10654 10649 10644 10638 10632 10626 10621 10615 10609 10604 10599 10595 10589 10583 10580 10577 10572 10571 10571 10564 10554 10549 10545 10539 10533 10523 10506 10492 10487 10491 10494 10492 10485 10476 10469 10463 10456 10449 10446 10444 10436 10428 10426 10423 10419 10412 10400 10389 10385 10384 10379 10372 10366 10361 10356 10351
10728 10727 10726 10725 10723 10722 10721 10719 10718 10716 10714 10712 10711 10708 10706 10703 10700 10698 10695 10692 10690 10687 10684 10681 10677 10674 10670 10665 10661 10657 10652 10647 10642 10637 10632 10628 10622 10616 10611 10605 10600 10595 10590 10583 10578 10571 10566 10562 10558 10555 10556 10551 10542 10538 10535 10530 10521 10509 10494 10486 10486 10487 10485 10480 10472 10462 10455 10449 10445 10440 10436 10432 10426 10421 10419 10416 10411 10402 10390 10378 10372 10373 10369 10362 10354 10350 10346 10341
10725 10724 10723 10722 10720 10719 10718 10716 10714 10712 10710 10707 10705 10702 10700 10697 10695 10692 10690 10687 10684 10681 10677 10674 10670 10666 10662 10658 10653 10649 10644 10638 10633 10627 10622 10616 10611 10605 10599 10593 10587 10582 10577 10570 10563 10556 10549 10545 10540 10536 10536 10534 10528 10524 10522 10516 10509 10498 10486 10482 10484 10479 10473 10470 10463 10453 10444 10436 10430 10427 10423 10419 10415 10410 10407 10406 10402 10394 10382 10370 10362 10362 10360 10354 10346 10340 10336 10331